CW9546 Weather Reports


Display with metric or nautical units.
time (UTC)temp
F
wind
direction
speed
MPH
gust
MPH
rain 1hr
in
rain 24hr
in
rain mn
in
humidity
%
barometer
mb
20260508144049 50 137 1.0 0.0 0.00 0.00 0.00 76 1018.5
20260508143134 50 140 1.0 0.0 0.00 0.00 0.00 75 1018.0
20260508142045 50 198 1.0 0.0 0.00 0.00 0.00 75 1017.7
20260508141252 50 139 1.0 0.0 0.00 0.00 0.00 75 1017.7
20260508140038 49 134 0.0 0.0 0.00 0.00 0.00 79 1017.5
20260508135116 48 247 0.0 0.0 0.00 0.00 0.00 80 1017.3
20260508134105 48 247 0.0 0.0 0.00 0.00 0.00 79 1017.3
20260508133047 47 247 0.0 0.0 0.00 0.00 0.00 80 1017.1
20260508132038 47 247 0.0 0.0 0.00 0.00 0.00 80 1017.0
20260508131035 47 248 0.0 0.0 0.00 0.00 0.00 80 1017.0
20260508130040 47 248 0.0 0.0 0.00 0.00 0.00 80 1016.9
20260508125039 47 248 0.0 0.0 0.00 0.00 0.00 80 1016.6
20260508124102 47 248 0.0 0.0 0.00 0.00 0.00 81 1016.6
20260508123051 46 248 0.0 0.0 0.00 0.00 0.00 81 1016.5
20260508122040 46 228 0.0 0.0 0.00 0.00 0.00 80 1016.5
20260508121034 46 228 0.0 0.0 0.00 0.00 0.00 80 1016.5
20260508120057 46 228 0.0 0.0 0.00 0.00 0.00 81 1016.5
20260508115030 46 328 0.0 0.0 0.00 0.00 0.00 80 1016.4
20260508114047 46 328 0.0 0.0 0.00 0.00 0.00 80 1016.4
20260508113123 46 328 0.0 0.0 0.00 0.00 0.00 80 1016.2
20260508112036 46 328 0.0 0.0 0.00 0.00 0.00 80 1016.1
20260508111044 46 328 0.0 0.0 0.00 0.00 0.00 79 1016.1
20260508110105 46 328 0.0 0.0 0.00 0.00 0.00 79 1016.0
20260508105056 46 328 0.0 0.0 0.00 0.00 0.00 79 1016.0
20260508104105 46 328 0.0 0.0 0.00 0.00 0.00 79 1016.0
20260508103109 46 328 0.0 0.0 0.00 0.00 0.00 79 1015.9
20260508102042 46 328 0.0 0.0 0.00 0.00 0.00 79 1015.8
20260508101044 46 328 0.0 0.0 0.00 0.00 0.00 79 1015.8
20260508100059 46 328 0.0 0.0 0.00 0.00 0.00 79 1015.8
20260508095033 47 328 0.0 0.0 0.00 0.00 0.00 79 1015.8
20260508094040 47 328 1.0 0.0 0.00 0.00 0.00 78 1015.8
20260508093032 47 63 0.0 0.0 0.00 0.00 0.00 78 1015.6
20260508092034 47 63 0.0 0.0 0.00 0.00 0.00 79 1015.9
20260508091029 47 63 0.0 0.0 0.00 0.00 0.00 79 1015.9
20260508090053 47 63 0.0 0.0 0.00 0.00 0.00 78 1015.7
20260508085102 47 63 0.0 0.0 0.00 0.00 0.00 79 1015.9
20260508084055 47 63 0.0 0.0 0.00 0.00 0.00 79 1015.9
20260508083029 48 63 0.0 0.0 0.00 0.00 0.00 78 1015.9
20260508082038 48 63 0.0 0.0 0.00 0.00 0.00 78 1016.0
20260508081038 48 63 0.0 0.0 0.00 0.00 0.00 78 1016.0
20260508080034 48 63 0.0 0.0 0.00 0.00 0.00 78 1016.0
20260508075043 48 63 0.0 0.0 0.00 0.00 0.00 78 1016.0
20260508074038 48 63 0.0 0.0 0.00 0.00 0.00 78 1016.0
20260508073045 48 63 0.0 0.0 0.00 0.00 0.00 78 1016.0
20260508072110 48 63 0.0 0.0 0.00 0.00 0.00 78 1016.1
20260508071043 48 63 0.0 0.0 0.00 0.00 0.00 78 1016.1
20260508070049 48 63 0.0 0.0 0.00 0.00 0.00 78 1016.1
20260508065056 48 63 0.0 0.0 0.00 0.00 0.00 79 1016.1
20260508064046 48 63 0.0 0.0 0.00 0.00 0.00 79 1016.1
20260508063059 48 63 0.0 0.0 0.00 0.00 0.00 79 1016.2
20260508062034 49 63 0.0 0.0 0.00 0.00 0.00 79 1016.4
20260508061039 49 63 0.0 0.0 0.00 0.00 0.00 79 1016.4
20260508060149 49 63 0.0 0.0 0.00 0.00 0.00 79 1016.4
20260508055040 49 63 0.0 0.0 0.00 0.00 0.00 79 1016.4
20260508054044 49 63 0.0 0.0 0.00 0.00 0.00 80 1016.4
20260508053039 50 63 0.0 0.0 0.00 0.00 0.00 80 1016.3
20260508052051 50 63 0.0 0.0 0.00 0.00 0.00 80 1016.3
20260508051039 51 63 0.0 0.0 0.00 0.00 0.00 80 1016.3
20260508050038 51 63 0.0 0.0 0.00 0.00 0.00 81 1016.4
20260508045107 51 63 0.0 0.0 0.00 0.00 0.00 81 1016.5
20260508044042 52 63 0.0 0.0 0.00 0.00 0.00 81 1016.5
20260508043036 52 63 0.0 0.0 0.00 0.00 0.00 80 1016.5
20260508042052 53 63 0.0 0.0 0.00 0.00 0.00 80 1016.5
20260508041059 53 63 0.0 0.0 0.00 0.00 0.00 79 1016.5
20260508040046 54 63 0.0 0.0 0.00 0.00 0.00 78 1016.5
20260508035039 55 63 0.0 0.0 0.00 0.00 0.00 77 1016.4
20260508034033 55 63 0.0 0.0 0.00 0.00 0.00 76 1016.4
20260508033036 56 63 0.0 0.0 0.00 0.00 0.00 75 1016.5
20260508032041 57 63 0.0 0.0 0.00 0.00 0.00 74 1016.5
20260508031035 57 63 0.0 0.0 0.00 0.00 0.00 72 1016.5
20260508030044 58 63 0.0 0.0 0.00 0.00 0.00 71 1016.4
20260508025044 58 63 0.0 0.0 0.00 0.00 0.00 72 1016.4
20260508024036 59 63 0.0 0.0 0.00 0.00 0.00 70 1016.5
20260508023047 59 63 0.0 0.0 0.00 0.00 0.00 68 1016.6
20260508022040 60 63 0.0 0.0 0.00 0.00 0.00 66 1016.6
20260508021035 60 63 0.0 0.0 0.00 0.00 0.00 67 1016.6
20260508020051 60 64 0.0 0.0 0.00 0.00 0.00 65 1016.5
20260508015044 61 65 1.0 0.0 0.00 0.00 0.00 66 1016.6